PERSEUS-M2

Last updated on Mon Jun 22 2026 00:03:48 GMT+0000 (Coordinated Universal Time)

1 40037U 14033AD 26172.47904858 .00001476 00000+0 13865-3 0 9991 2 40037 97.9966 123.1067 0010157 288.3843 71.6273 14.95521249651428
UTC large
Height (km)
Speed (km/s)
/
Latitude / Longitude
Inclination (degrees)
Orbital Period (minutes)
Azimuth
Elevation
Range (km)
Doppler Factor

Next 0 passes for location: London (51.5072 / 0.1276)

No passes found over London.
PERSEUS-M2